User: anonymous   Login
Location: Godiavel Galaoual
(15.2485°N, 12.6604°W)
Time: 19:42:25
(UTC+00:00)
Language:

UKube-1 - Orbit

View from above orbital plane
View from above orbital plane
View from above satellite
View from above satellite

Ground track
Ground track

The orbit data is extracted from the following two-line orbital elements,

1 40074U 14037F   21204.50549958  .00000156  00000-0  25617-4 0  9991
2 40074  98.4269  62.3130 0003341 275.4034  84.6790 14.84584758381253
Epoch (UTC): 23 July 2021 12:07:55
Eccentricity: 0.0003341
inclination: 98.4269°
perigee height: 612 km
apogee height: 617 km
right ascension of ascending node: 62.3130°
argument of perigee: 275.4034°
revolutions per day: 14.84584758
mean anomaly at epoch: 84.6790°
orbit number at epoch: 38125

The dashed part of the orbit path shows where the satellite is in the earth's shadow,  

DLR